Weather History for Kalispell, MT

Change the Weather History Date:

Sunday, February 10, 2013

  Actual Average Record
Temperature  
Mean Temperature 27 °F 26 °F  
Max Temperature 36 °F 35 °F 54 °F (1918)
Min Temperature 18 °F 18 °F -21 °F (1981)
Degree Days  
Heating Degree Days 38 39  
Month to date heating degree days 322 390  
Since 1 July heating degree days 4695 5181  
Cooling Degree Days 0 0  
Month to date cooling degree days 0 0  
Year to date cooling degree days 0 0  
Moisture  
Dew Point 23 °F    
Average Humidity 82    
Maximum Humidity 100    
Minimum Humidity 64    
Precipitation  
Precipitation 0.00 in 0.03 in 0.35 in (1973)
Month to date precipitation 0.04 0.34  
Year to date precipitation 0.91 1.67  
Snow  
Snow 0.00 in - - ()
Month to date snowfall T  
Year to date snowfall 6.0  
Since 1 July snowfall 14.8  
Snow Depth 0.00 in    
Sea Level Pressure  
Sea Level Pressure 30.22 in    
Wind  
Wind Speed 1 mph (SE)    
Max Wind Speed 7 mph    
Max Gust Speed 12 mph    
Visibility 7 miles    
Events Fog    
T = Trace of Precipitation, MM = Missing Value Source: NWS Daily Summary

Daily Weather History Graph

Daily Weather History Graph

Search for Another Location

Airport:

Trip Planner

Search our weather history database for the weather conditions in past years. The results will help you decide how hot, cold, wet, or windy it might be!

Date:

Astronomy

Feb. 10, 2013 Rise Set
Actual Time 7:51 AM MST 5:51 PM MST
Civil Twilight 7:19 AM MST 6:24 PM MST
Nautical Twilight 6:42 AM MST 7:00 PM MST
Astronomical Twilight 6:06 AM MST 7:37 PM MST
Moon 7:37 AM MST (2/10) 6:55 PM MST (2/10)
Length of Visible Light 11h 04m
Length of Day
9h 59m
New Moon, 0% of the Moon is Illuminated
Feb 10
New Moon
Feb 17
First Quarter
Feb 25
Full
Mar 4
Last Quarter
Mar 11
New

Hourly Weather History & Observations

Time (MST) Temp. Windchill Dew Point Humidity Pressure Visibility Wind Dir Wind Speed Gust Speed Precip Events Conditions
12:55 AM 24.1 °F - 23.0 °F 96% 30.20 in 10.0 mi Calm Calm - N/A   Partly Cloudy
1:55 AM 24.1 °F 19.7 °F 21.9 °F 91% 30.21 in 7.0 mi NNE 3.5 mph - N/A   Mostly Cloudy
2:55 AM 24.1 °F - 21.9 °F 91% 30.23 in 7.0 mi Calm Calm - N/A   Overcast
3:55 AM 21.9 °F 17.2 °F 21.0 °F 96% 30.23 in 7.0 mi SSE 3.5 mph - N/A   Scattered Clouds
4:55 AM 21.0 °F - 19.0 °F 92% 30.25 in 5.0 mi Calm Calm - N/A   Clear
5:41 AM 17.6 °F - 17.6 °F 100% 30.15 in 5.0 mi Calm Calm - N/A   Scattered Clouds
5:50 AM 19.4 °F - 17.6 °F 93% 30.15 in 9.0 mi Calm Calm - N/A   Mostly Cloudy
5:55 AM 19.9 °F - 19.0 °F 96% 30.26 in 9.0 mi Calm Calm - N/A   Mostly Cloudy
6:55 AM 21.9 °F - 19.9 °F 92% 30.27 in 7.0 mi Calm Calm - N/A   Overcast
7:55 AM 23.0 °F - 21.9 °F 96% 30.29 in 0.2 mi Calm Calm - N/A Fog Light Freezing Fog
8:55 AM 25.0 °F - 25.0 °F 100% 30.29 in 0.2 mi Calm Calm - N/A Fog Light Freezing Fog
9:12 AM 26.6 °F - 24.8 °F 93% 30.18 in 0.5 mi Calm Calm - N/A Fog Light Freezing Fog
9:55 AM 26.1 °F - 26.1 °F 100% 30.29 in 0.5 mi Calm Calm - N/A Fog Light Freezing Fog
10:55 AM 26.1 °F - 26.1 °F 100% 30.30 in 0.5 mi Calm Calm - N/A Fog Light Freezing Fog
10:56 AM 26.6 °F - 24.8 °F 93% 30.19 in 1.0 mi Calm Calm - N/A   Overcast
11:21 AM 26.6 °F - 24.8 °F 93% 30.19 in 7.0 mi Calm Calm - N/A   Overcast
11:55 AM 28.0 °F - 26.1 °F 92% 30.29 in 6.0 mi Calm Calm - N/A   Overcast
12:55 PM 28.9 °F 25.2 °F 25.0 °F 85% 30.27 in 10.0 mi South 3.5 mph - N/A   Overcast
1:24 PM 30.2 °F - 24.8 °F 80% 30.16 in 10.0 mi Calm Calm - N/A   Overcast
1:53 PM 30.2 °F 25.4 °F 26.6 °F 86% 30.16 in 10.0 mi SE 4.6 mph - N/A   Scattered Clouds
1:55 PM 30.9 °F 24.3 °F 26.1 °F 82% 30.25 in 10.0 mi SSE 6.9 mph - N/A   Partly Cloudy
2:55 PM 33.1 °F 30.0 °F 26.1 °F 75% 30.23 in 10.0 mi SE 3.5 mph - N/A   Clear
3:55 PM 35.1 °F 30.1 °F 25.0 °F 67% 30.23 in 10.0 mi SSE 5.8 mph - N/A   Clear
4:55 PM 36.0 °F - 25.0 °F 64% 30.22 in 10.0 mi Calm Calm - N/A   Clear
5:55 PM 30.0 °F 25.2 °F 24.1 °F 79% 30.22 in 10.0 mi South 4.6 mph - N/A   Clear
6:55 PM 26.1 °F - 23.0 °F 88% 30.23 in 10.0 mi Calm Calm - N/A   Clear
7:55 PM 23.0 °F - 21.9 °F 96% 30.24 in 10.0 mi Calm Calm - N/A   Clear
8:55 PM 24.8 °F - 23.0 °F 93% 30.11 in 10.0 mi Calm Calm - N/A   Overcast
9:55 PM 26.1 °F - 23.0 °F 88% 30.21 in 10.0 mi Calm Calm - N/A   Overcast
10:55 PM 27.0 °F - 24.1 °F 89% 30.19 in 10.0 mi Calm Calm - N/A   Overcast
11:55 PM 25.0 °F - 23.0 °F 92% 30.19 in 10.0 mi Calm Calm - N/A   Partly Cloudy